PGT991H EGKK-EDDF

Flight info

Callsign PGT991H
Flight time N/A
Altitude 35000
Route DVR UL9 KONAN UL607 KOK DCT REMBA UL607 SPI T180 NIVNU/N0400F230 T847 IMCOM
Aircraft A21N/M-SDE3FGHIRWY/LB1

Departure

Time 2026-05-07 20:04
Airport London Gatwick Airport (EGKK)

Arrival

Time N/A
Airport Frankfurt Main Airport (EDDF)
Time Latitude Longitude Altitude Speed Heading
2026-05-07 18:56 51.15494 -0.16832 209 ft 0 kts 346°
2026-05-07 19:43 51.15487 -0.16829 212 ft 2 kts 336°
2026-05-07 19:43 51.15472 -0.16818 202 ft 2 kts 321°
2026-05-07 19:43 51.15460 -0.16799 211 ft 2 kts 300°
2026-05-07 19:44 51.15453 -0.16776 209 ft 2 kts 285°
2026-05-07 19:44 51.15449 -0.16750 208 ft 2 kts 287°
2026-05-07 19:44 51.15447 -0.16739 211 ft 0 kts 297°
2026-05-07 19:47 51.15451 -0.16754 206 ft 6 kts 289°
2026-05-07 19:47 51.15441 -0.16885 203 ft 14 kts 257°
2026-05-07 19:48 51.15426 -0.17006 209 ft 10 kts 258°
2026-05-07 19:48 51.15413 -0.17101 208 ft 8 kts 257°
2026-05-07 19:48 51.15394 -0.17169 204 ft 6 kts 243°
2026-05-07 19:48 51.15381 -0.17224 215 ft 5 kts 250°
2026-05-07 19:49 51.15371 -0.17272 212 ft 4 kts 253°
2026-05-07 19:49 51.15364 -0.17313 216 ft 3 kts 254°
2026-05-07 19:49 51.15350 -0.17350 204 ft 6 kts 227°
2026-05-07 19:49 51.15305 -0.17419 210 ft 13 kts 248°
2026-05-07 19:50 51.15285 -0.17571 213 ft 13 kts 258°
2026-05-07 19:50 51.15268 -0.17692 212 ft 8 kts 258°
2026-05-07 19:50 51.15257 -0.17771 213 ft 7 kts 256°
2026-05-07 19:50 51.15248 -0.17837 207 ft 6 kts 258°
2026-05-07 19:51 51.15240 -0.17892 209 ft 5 kts 257°
2026-05-07 19:51 51.15234 -0.17940 212 ft 4 kts 258°
2026-05-07 19:51 51.15226 -0.18001 206 ft 9 kts 258°
2026-05-07 19:51 51.15208 -0.18127 211 ft 15 kts 257°
2026-05-07 19:52 51.15182 -0.18317 207 ft 18 kts 258°
2026-05-07 19:52 51.15168 -0.18427 205 ft 7 kts 258°
2026-05-07 19:52 51.15160 -0.18502 214 ft 6 kts 260°
2026-05-07 19:52 51.15151 -0.18574 214 ft 8 kts 257°
2026-05-07 19:53 51.15131 -0.18718 205 ft 17 kts 258°
2026-05-07 19:53 51.15099 -0.18954 205 ft 24 kts 257°
2026-05-07 19:53 51.15065 -0.19205 214 ft 20 kts 257°
2026-05-07 19:53 51.15037 -0.19409 205 ft 14 kts 255°
2026-05-07 19:54 51.15018 -0.19557 216 ft 14 kts 257°
2026-05-07 19:54 51.14995 -0.19715 208 ft 13 kts 257°
2026-05-07 19:54 51.14973 -0.19873 208 ft 16 kts 257°
2026-05-07 19:54 51.14948 -0.20044 206 ft 18 kts 257°
2026-05-07 19:55 51.14919 -0.20265 206 ft 23 kts 257°
2026-05-07 19:55 51.14883 -0.20530 208 ft 24 kts 257°
2026-05-07 19:55 51.14852 -0.20748 208 ft 19 kts 259°
2026-05-07 19:55 51.14828 -0.20936 214 ft 16 kts 256°
2026-05-07 19:56 51.14807 -0.21084 202 ft 13 kts 262°
2026-05-07 19:56 51.14784 -0.21196 211 ft 10 kts 252°
2026-05-07 19:56 51.14768 -0.21299 211 ft 9 kts 257°
2026-05-07 19:56 51.14750 -0.21383 209 ft 7 kts 232°
2026-05-07 19:57 51.14706 -0.21398 205 ft 6 kts 169°
2026-05-07 19:57 51.14668 -0.21375 212 ft 5 kts 141°
2026-05-07 19:57 51.14641 -0.21340 205 ft 4 kts 145°
2026-05-07 19:57 51.14624 -0.21330 201 ft 0 kts 168°
2026-05-07 20:00 51.14623 -0.21329 206 ft 1 kts 166°
2026-05-07 20:00 51.14602 -0.21318 212 ft 6 kts 161°
2026-05-07 20:01 51.14553 -0.21277 213 ft 11 kts 134°
2026-05-07 20:01 51.14519 -0.21142 210 ft 14 kts 73°
2026-05-07 20:01 51.14539 -0.20986 206 ft 12 kts 77°
2026-05-07 20:01 51.14547 -0.20929 211 ft 0 kts 77°
2026-05-07 20:02 51.14551 -0.20898 206 ft 7 kts 77°
2026-05-07 20:02 51.14552 -0.20888 214 ft 0 kts 77°
2026-05-07 20:02 51.14560 -0.20837 211 ft 9 kts 77°
2026-05-07 20:02 51.14582 -0.20690 212 ft 18 kts 77°
2026-05-07 20:03 51.14605 -0.20533 214 ft 4 kts 78°
2026-05-07 20:03 51.14620 -0.20409 211 ft 40 kts 78°
2026-05-07 20:03 51.14733 -0.19601 206 ft 106 kts 77°
2026-05-07 20:03 51.14927 -0.18175 214 ft 155 kts 78°
2026-05-07 20:04 51.15160 -0.16408 634 ft 162 kts 78°
2026-05-07 20:04 51.15385 -0.14649 1245 ft 162 kts 79°
2026-05-07 20:04 51.15616 -0.12897 1837 ft 161 kts 78°
2026-05-07 20:04 51.15847 -0.11152 2360 ft 165 kts 78°
2026-05-07 20:05 51.16098 -0.09266 2571 ft 184 kts 79°
2026-05-07 20:05 51.16377 -0.07162 2715 ft 204 kts 79°
2026-05-07 20:05 51.16680 -0.04875 2903 ft 216 kts 79°
2026-05-07 20:05 51.16993 -0.02513 3257 ft 219 kts 79°
2026-05-07 20:06 51.17300 -0.00162 3625 ft 221 kts 79°
2026-05-07 20:06 51.17624 0.02303 3816 ft 238 kts 79°
2026-05-07 20:06 51.17981 0.05022 4168 ft 258 kts 79°
2026-05-07 20:06 51.18309 0.07851 4947 ft 262 kts 87°
2026-05-07 20:07 51.18218 0.10764 5708 ft 266 kts 96°
2026-05-07 20:07 51.18041 0.13732 6213 ft 272 kts 96°
2026-05-07 20:07 51.17857 0.16737 6335 ft 273 kts 96°
2026-05-07 20:07 51.17671 0.19751 6357 ft 273 kts 96°
2026-05-07 20:08 51.17487 0.22758 6357 ft 273 kts 96°
2026-05-07 20:08 51.17302 0.25764 6356 ft 273 kts 96°
2026-05-07 20:08 51.17115 0.28764 6355 ft 273 kts 96°
2026-05-07 20:08 51.16926 0.31769 6358 ft 272 kts 96°
2026-05-07 20:09 51.16877 0.34747 6360 ft 273 kts 90°
2026-05-07 20:09 51.16876 0.37772 6359 ft 273 kts 91°
2026-05-07 20:09 51.16870 0.40794 6355 ft 273 kts 91°
2026-05-07 20:10 51.16855 0.46835 6353 ft 273 kts 91°
2026-05-07 20:10 51.16849 0.49860 6359 ft 273 kts 91°
2026-05-07 20:10 51.16842 0.52882 6359 ft 273 kts 91°
2026-05-07 20:10 51.16833 0.55901 6362 ft 272 kts 91°
2026-05-07 20:11 51.16821 0.58919 6356 ft 273 kts 91°
2026-05-07 20:11 51.16806 0.61939 6361 ft 273 kts 91°
2026-05-07 20:11 51.16791 0.64961 6360 ft 273 kts 91°
2026-05-07 20:11 51.16776 0.67983 6360 ft 273 kts 91°
2026-05-07 20:12 51.16761 0.70963 6362 ft 273 kts 91°
2026-05-07 20:12 51.16747 0.73983 6355 ft 272 kts 91°
2026-05-07 20:12 51.16731 0.77043 6355 ft 273 kts 91°
2026-05-07 20:12 51.16715 0.80019 6357 ft 272 kts 91°
2026-05-07 20:13 51.16699 0.83037 6353 ft 272 kts 91°
2026-05-07 20:13 51.16685 0.86054 6353 ft 272 kts 91°
2026-05-07 20:13 51.16668 0.89072 6355 ft 272 kts 91°
2026-05-07 20:13 51.16647 0.92093 6361 ft 273 kts 91°
2026-05-07 20:14 51.16624 0.95113 6356 ft 272 kts 91°
2026-05-07 20:14 51.16601 0.98132 6356 ft 273 kts 91°
2026-05-07 20:14 51.16579 1.01151 6360 ft 272 kts 91°
2026-05-07 20:14 51.16557 1.04167 6360 ft 272 kts 91°
2026-05-07 20:15 51.16535 1.07176 6360 ft 272 kts 91°
2026-05-07 20:15 51.16512 1.10192 6355 ft 272 kts 91°
2026-05-07 20:15 51.16485 1.13166 6361 ft 272 kts 91°
2026-05-07 20:15 51.16456 1.16234 6562 ft 275 kts 91°
2026-05-07 20:16 51.16429 1.19237 7409 ft 276 kts 91°
2026-05-07 20:16 51.16401 1.22314 8190 ft 280 kts 91°
2026-05-07 20:16 51.16371 1.25435 8935 ft 283 kts 92°
2026-05-07 20:16 51.16340 1.28597 9659 ft 287 kts 92°
2026-05-07 20:17 51.16305 1.31805 10322 ft 294 kts 92°
2026-05-07 20:17 51.16267 1.35192 10524 ft 317 kts 92°
2026-05-07 20:17 51.16183 1.38828 10668 ft 340 kts 94°
2026-05-07 20:17 51.16020 1.42709 10822 ft 361 kts 95°
2026-05-07 20:18 51.15813 1.46743 11312 ft 369 kts 96°
2026-05-07 20:18 51.15592 1.50842 11941 ft 373 kts 96°
2026-05-07 20:18 51.15373 1.54942 12564 ft 378 kts 96°
2026-05-07 20:18 51.15154 1.59132 13188 ft 382 kts 95°
2026-05-07 20:19 51.14939 1.63366 13789 ft 385 kts 95°
2026-05-07 20:19 51.14727 1.67642 14393 ft 389 kts 95°
2026-05-07 20:19 51.14515 1.71956 14974 ft 393 kts 95°
2026-05-07 20:19 51.14300 1.76321 15532 ft 396 kts 95°
2026-05-07 20:20 51.14085 1.80653 16080 ft 399 kts 95°
2026-05-07 20:20 51.13862 1.85080 16595 ft 403 kts 95°
2026-05-07 20:20 51.13632 1.89555 17128 ft 406 kts 95°
2026-05-07 20:20 51.13396 1.94053 17649 ft 409 kts 96°
2026-05-07 20:21 51.13155 1.98588 18148 ft 413 kts 96°
2026-05-07 20:21 51.12912 2.03156 18640 ft 415 kts 96°
2026-05-07 20:21 51.12667 2.07756 19115 ft 419 kts 96°
2026-05-07 20:21 51.12418 2.12393 19576 ft 422 kts 96°
2026-05-07 20:22 51.12167 2.17003 20031 ft 425 kts 96°
2026-05-07 20:22 51.11912 2.21707 20485 ft 428 kts 96°
2026-05-07 20:22 51.11656 2.26430 20939 ft 431 kts 96°
2026-05-07 20:22 51.11395 2.31195 21388 ft 433 kts 96°
2026-05-07 20:23 51.11133 2.35990 21813 ft 437 kts 96°
2026-05-07 20:23 51.10868 2.40816 22237 ft 439 kts 96°
2026-05-07 20:23 51.10596 2.45674 22652 ft 442 kts 96°
2026-05-07 20:23 51.10320 2.50561 23064 ft 445 kts 96°
2026-05-07 20:24 51.10038 2.55475 23463 ft 447 kts 96°
2026-05-07 20:24 51.09750 2.60419 23835 ft 450 kts 96°
2026-05-07 20:24 51.09360 2.65369 24199 ft 452 kts 102°
2026-05-07 20:24 51.08575 2.70213 24556 ft 453 kts 107°
2026-05-07 20:25 51.07698 2.75042 24928 ft 456 kts 107°
2026-05-07 20:25 51.06815 2.79897 25263 ft 458 kts 107°
2026-05-07 20:25 51.05940 2.84714 25605 ft 461 kts 107°
2026-05-07 20:25 51.05045 2.89616 25943 ft 463 kts 107°
2026-05-07 20:26 51.04146 2.94531 26271 ft 465 kts 107°
2026-05-07 20:26 51.03242 2.99477 26597 ft 467 kts 107°
2026-05-07 20:26 51.02332 3.04448 26910 ft 470 kts 107°
2026-05-07 20:26 51.01416 3.09440 27237 ft 472 kts 108°
2026-05-07 20:27 51.00493 3.14451 27551 ft 474 kts 108°
2026-05-07 20:27 50.99564 3.19482 27857 ft 476 kts 108°
2026-05-07 20:27 50.98631 3.24522 28216 ft 476 kts 108°
2026-05-07 20:27 50.97695 3.29552 28615 ft 475 kts 108°
2026-05-07 20:28 50.96760 3.34568 29007 ft 474 kts 108°
2026-05-07 20:28 50.95827 3.39572 29377 ft 473 kts 108°
2026-05-07 20:28 50.94892 3.44568 29737 ft 472 kts 108°
2026-05-07 20:28 50.93952 3.49558 30088 ft 472 kts 108°
2026-05-07 20:29 50.93022 3.54469 30448 ft 471 kts 108°
2026-05-07 20:29 50.92081 3.59438 30808 ft 470 kts 108°
2026-05-07 20:29 50.91142 3.64400 31145 ft 470 kts 108°
2026-05-07 20:29 50.90204 3.69354 31504 ft 469 kts 108°
2026-05-07 20:30 50.89262 3.74312 31857 ft 469 kts 108°
2026-05-07 20:30 50.88319 3.79250 32184 ft 468 kts 108°
2026-05-07 20:30 50.87372 3.84180 32522 ft 468 kts 108°
2026-05-07 20:30 50.86424 3.89111 32847 ft 468 kts 108°
2026-05-07 20:31 50.85488 3.93980 33174 ft 468 kts 108°
2026-05-07 20:31 50.84528 3.98968 33475 ft 468 kts 108°
2026-05-07 20:31 50.83591 4.03812 33771 ft 468 kts 108°
2026-05-07 20:31 50.82635 4.08725 34091 ft 467 kts 108°
2026-05-07 20:32 50.81678 4.13633 34399 ft 467 kts 108°
2026-05-07 20:32 50.80723 4.18535 34684 ft 466 kts 108°
2026-05-07 20:32 50.79766 4.23433 34957 ft 467 kts 108°
2026-05-07 20:32 50.78808 4.28336 35062 ft 466 kts 108°
2026-05-07 20:33 50.77855 4.33197 35086 ft 465 kts 108°
2026-05-07 20:33 50.75938 4.42941 35077 ft 464 kts 109°
2026-05-07 20:34 50.74008 4.52675 35079 ft 464 kts 109°
2026-05-07 20:34 50.72074 4.62381 35083 ft 464 kts 109°
2026-05-07 20:35 50.70141 4.72015 35082 ft 463 kts 109°
2026-05-07 20:35 50.68184 4.81706 35077 ft 463 kts 109°
2026-05-07 20:36 50.66231 4.91365 35080 ft 463 kts 109°
2026-05-07 20:36 50.64265 5.01023 35082 ft 463 kts 109°
2026-05-07 20:37 50.62292 5.10625 35078 ft 463 kts 109°
2026-05-07 20:37 50.60295 5.20258 35078 ft 463 kts 109°
2026-05-07 20:38 50.58289 5.29902 35071 ft 463 kts 109°
2026-05-07 20:38 50.56283 5.39524 35077 ft 463 kts 109°
2026-05-07 20:39 50.54276 5.49076 35083 ft 463 kts 109°
2026-05-07 20:39 50.52246 5.58679 35083 ft 463 kts 109°
2026-05-07 20:40 50.50269 5.68320 35083 ft 463 kts 107°
2026-05-07 20:40 50.48483 5.78045 35079 ft 463 kts 106°
2026-05-07 20:41 50.46741 5.87733 35077 ft 464 kts 107°
2026-05-07 20:41 50.44951 5.97344 34935 ft 449 kts 107°
2026-05-07 20:41 50.44059 6.02026 34467 ft 444 kts 107°
2026-05-07 20:42 50.43184 6.06588 34060 ft 439 kts 107°
2026-05-07 20:42 50.42307 6.11154 33636 ft 435 kts 107°
2026-05-07 20:42 50.41436 6.15677 33193 ft 431 kts 107°
2026-05-07 20:42 50.40572 6.20172 32737 ft 428 kts 107°
2026-05-07 20:43 50.39718 6.24623 32280 ft 425 kts 107°
2026-05-07 20:43 50.38868 6.29039 31823 ft 422 kts 107°
2026-05-07 20:43 50.38022 6.33419 31383 ft 418 kts 107°
2026-05-07 20:43 50.37181 6.37774 30933 ft 415 kts 107°
2026-05-07 20:44 50.36411 6.42081 30049 ft 422 kts 99°
2026-05-07 20:44 50.36015 6.46705 28485 ft 435 kts 96°
2026-05-07 20:44 50.35701 6.51488 26518 ft 448 kts 95°
2026-05-07 20:44 50.35419 6.56399 24499 ft 457 kts 95°
2026-05-07 20:45 50.35143 6.61386 22507 ft 462 kts 95°
2026-05-07 20:45 50.34860 6.66387 20761 ft 459 kts 96°
2026-05-07 20:45 50.34566 6.71313 19217 ft 450 kts 96°
2026-05-07 20:45 50.34259 6.76128 17800 ft 439 kts 96°
2026-05-07 20:46 50.33961 6.80743 17163 ft 411 kts 96°
2026-05-07 20:46 50.33650 6.85016 16811 ft 379 kts 102°
2026-05-07 20:46 50.32838 6.88726 16603 ft 346 kts 116°
2026-05-07 20:46 50.31853 6.92063 16104 ft 333 kts 116°
2026-05-07 20:47 50.30873 6.95361 15583 ft 336 kts 116°
2026-05-07 20:47 50.29875 6.98708 15058 ft 350 kts 116°
2026-05-07 20:47 50.28847 7.02163 14896 ft 352 kts 116°
2026-05-07 20:47 50.27809 7.05651 14831 ft 353 kts 116°
2026-05-07 20:48 50.26771 7.09132 14705 ft 353 kts 116°
2026-05-07 20:48 50.25734 7.12608 14581 ft 353 kts 116°
2026-05-07 20:48 50.24698 7.16078 14453 ft 352 kts 116°
2026-05-07 20:48 50.23661 7.19538 14326 ft 351 kts 116°
2026-05-07 20:49 50.22622 7.22991 14188 ft 351 kts 116°
2026-05-07 20:49 50.21581 7.26431 14058 ft 350 kts 116°
2026-05-07 20:49 50.20893 7.28707 14072 ft 350 kts 116°
2026-05-07 20:49 50.19855 7.32149 14086 ft 350 kts 116°
2026-05-07 20:50 50.18589 7.36782 14079 ft 351 kts 111°
2026-05-07 20:50 50.17731 7.40351 14072 ft 352 kts 110°
2026-05-07 20:50 50.17175 7.42771 13896 ft 351 kts 110°
2026-05-07 20:50 50.16363 7.46355 13646 ft 349 kts 110°
2026-05-07 20:51 50.15551 7.49919 13396 ft 348 kts 110°
2026-05-07 20:51 50.14741 7.53406 13153 ft 347 kts 110°
2026-05-07 20:51 50.13908 7.56932 12906 ft 346 kts 110°
2026-05-07 20:51 50.13070 7.60435 13026 ft 346 kts 111°
2026-05-07 20:52 50.12222 7.63950 13073 ft 347 kts 111°
2026-05-07 20:52 50.11370 7.67460 13081 ft 347 kts 111°
2026-05-07 20:52 50.10560 7.70992 12959 ft 346 kts 108°
2026-05-07 20:52 50.09838 7.74567 12884 ft 346 kts 107°
2026-05-07 20:53 50.09156 7.78150 12804 ft 346 kts 106°
2026-05-07 20:53 50.08487 7.81745 12723 ft 345 kts 106°
2026-05-07 20:53 50.07814 7.85326 12651 ft 345 kts 107°
2026-05-07 20:53 50.07132 7.88904 12574 ft 345 kts 107°
2026-05-07 20:54 50.06459 7.92430 12500 ft 344 kts 107°
2026-05-07 20:54 50.05777 7.95998 12427 ft 344 kts 107°
2026-05-07 20:54 50.05095 7.99561 12352 ft 343 kts 107°
2026-05-07 20:54 50.04414 8.03121 12276 ft 343 kts 107°
2026-05-07 20:55 50.03735 8.06670 12205 ft 343 kts 107°
2026-05-07 20:55 50.03053 8.10221 12126 ft 342 kts 107°
2026-05-07 20:55 50.02371 8.13775 12050 ft 342 kts 107°
2026-05-07 20:55 50.01691 8.17310 11969 ft 342 kts 107°
2026-05-07 20:56 50.01011 8.20847 11906 ft 341 kts 107°
2026-05-07 20:56 50.00329 8.24383 11825 ft 341 kts 107°